MIDVIL-WX Weather Reports


time (UTC)temp
F
wind
direction
speed
knots
gust
knots
rain 1hr
in
rain 24hr
in
rain mn
in
humidity
%
barometer
mb
20260505194525 54 271 12.2 0.0 0.00 0.00 0.00 34 982.4
20260505193042 55 273 13.0 0.0 0.00 0.00 0.00 34 982.4
20260505191528 55 268 12.2 0.0 0.00 0.00 0.00 34 982.4
20260505190051 55 269 12.2 0.0 0.00 0.00 0.00 34 982.4
20260505184528 55 265 12.2 0.0 0.00 0.00 0.00 36 983.0
20260505183050 55 272 13.0 0.0 0.00 0.00 0.00 37 982.3
20260505181528 55 274 12.2 0.0 0.00 0.00 0.00 37 982.3
20260505180056 56 268 11.3 0.0 0.00 0.00 0.00 37 982.3
20260505174527 55 268 12.2 0.0 0.00 0.00 0.00 33 981.6
20260505173043 55 272 11.3 0.0 0.00 0.00 0.00 35 980.7
20260505171528 54 275 11.3 0.0 0.00 0.00 0.00 35 980.7
20260505170054 54 278 11.3 0.0 0.00 0.00 0.00 35 980.7
20260505164528 53 286 11.3 0.0 0.00 0.00 0.00 41 981.6
20260505163047 53 283 11.3 0.0 0.00 0.00 0.00 43 979.8
20260505161528 53 270 10.4 0.0 0.00 0.00 0.00 43 979.8
20260505153049 51 272 11.3 0.0 0.00 0.00 0.00 43 980.6
20260505151528 51 279 11.3 0.0 0.00 0.00 0.00 43 980.5
20260505124527 52 306 7.8 0.0 0.00 0.00 0.00 72 979.7
20260505123047 51 310 7.0 0.0 0.00 0.00 0.00 71 978.0
20260505121527 50 312 7.0 0.0 0.00 0.00 0.00 71 978.0
20260505120104 49 290 7.0 0.0 0.00 0.00 0.00 71 978.0
20260505114527 49 282 7.8 0.0 0.00 0.00 0.00 72 978.1
20260505113045 49 288 7.8 0.0 0.00 0.00 0.00 67 976.6
20260505111527 50 285 5.2 0.0 0.00 0.00 0.00 67 976.6
20260505101527 50 254 6.1 0.0 0.00 0.00 0.00 58 975.0
20260505100058 50 257 6.1 0.0 0.00 0.00 0.00 58 975.0
20260505094527 51 257 6.1 0.0 0.00 0.00 0.00 64 975.3
20260505093049 52 262 5.2 0.0 0.00 0.00 0.00 67 975.0
20260505091527 51 244 7.0 0.0 0.00 0.00 0.00 67 975.0
20260505084525 53 261 5.2 0.0 0.00 0.00 0.00 75 975.4
20260505083046 52 255 5.2 0.0 0.00 0.00 0.00 80 974.7
20260505081527 53 249 6.1 0.0 0.00 0.00 0.00 80 974.7
20260505080055 53 249 7.0 0.0 0.00 0.00 0.00 66 974.9
20260505074527 54 253 8.7 0.0 0.00 0.00 0.00 79 974.1
20260505073048 54 245 7.0 0.0 0.00 0.00 0.00 79 974.1
20260505071527 55 234 8.7 0.0 0.00 0.00 0.00 79 974.2
20260505070057 56 226 8.7 0.0 0.00 0.00 0.00 79 974.2
20260505064527 56 239 7.8 0.0 0.00 0.00 0.00 80 974.5
20260505063044 56 234 8.7 0.0 0.00 0.00 0.00 76 973.9
20260505061528 57 241 8.7 0.0 0.00 0.00 0.00 76 973.9
20260505054528 58 234 9.6 0.0 0.00 0.00 0.00 76 975.2
20260505053050 58 225 7.8 0.0 0.00 0.00 0.00 68 973.7
20260505051527 59 236 7.8 0.0 0.00 0.00 0.00 68 973.7
20260505041527 61 232 4.3 0.0 0.00 0.00 0.00 65 973.7
20260505040058 61 231 7.8 0.0 0.00 0.00 0.00 65 973.7
20260505034524 62 225 9.6 0.0 0.00 0.00 0.00 63 973.5
20260505033047 61 211 10.4 0.0 0.00 0.00 0.00 65 973.5
20260505031527 62 202 12.2 0.0 0.00 0.00 0.00 65 973.5
20260505030056 62 207 13.0 0.0 0.00 0.00 0.00 65 973.5
20260505024527 62 205 13.0 0.0 0.00 0.00 0.00 56 973.8
20260505023048 63 207 14.8 0.0 0.00 0.00 0.00 60 973.9
20260505021527 63 214 13.9 0.0 0.00 0.00 0.00 60 973.8
20260505020056 63 209 14.8 0.0 0.00 0.00 0.00 60 973.8
20260505014527 64 207 16.5 0.0 0.00 0.00 0.00 63 972.9
20260505013045 64 207 15.6 0.0 0.00 0.00 0.00 63 972.9
20260505011527 64 206 16.5 0.0 0.00 0.00 0.00 63 972.9
20260505010052 64 205 13.9 0.0 0.00 0.00 0.00 63 972.9
20260505004527 66 214 12.2 0.0 0.00 0.00 0.00 43 973.4
20260505003044 67 197 7.8 0.0 0.00 0.00 0.00 45 974.1
20260505001526 67 190 6.1 0.0 0.00 0.00 0.00 45 974.1
20260505000056 68 202 5.2 0.0 0.00 0.00 0.00 45 974.1
20260504234526 69 219 6.1 0.0 0.00 0.00 0.00 34 974.1
20260504233044 70 237 7.8 0.0 0.00 0.00 0.00 34 973.9
20260504231526 71 243 8.7 0.0 0.00 0.00 0.00 34 973.9
20260504230052 71 248 10.4 0.0 0.00 0.00 0.00 34 973.9
20260504224526 72 248 13.0 0.0 0.00 0.00 0.00 37 973.7
20260504223047 72 254 13.9 0.0 0.00 0.00 0.00 38 974.1
20260504221526 72 247 14.8 0.0 0.00 0.00 0.00 38 974.1
20260504220059 73 243 15.6 0.0 0.00 0.00 0.00 38 974.1
20260504214525 73 241 14.8 0.0 0.00 0.00 0.00 34 975.1
20260504213047 73 243 14.8 0.0 0.00 0.00 0.00 34 975.1
20260504211525 73 239 16.5 0.0 0.00 0.00 0.00 35 974.1
20260504210056 73 241 16.5 0.0 0.00 0.00 0.00 35 974.1
20260504204530 73 236 18.2 0.0 0.00 0.00 0.00 36 974.8
20260504203041 73 237 17.4 0.0 0.00 0.00 0.00 36 974.8
20260504201532 73 234 15.6 0.0 0.00 0.00 0.00 36 974.8
20260504200053 72 237 18.2 0.0 0.00 0.00 0.00 41 974.0